Retour au catalogue

NOAA 17 DEB

ActifSSO
NORAD 48705·DEBRIS·🇺🇸 United States

Lancé Jun 24, 2002 depuis Vandenberg Space Force Base

Loading…

Prochains Passages (prochaines 24 heures)

TLE

FraisSource: Space-Track

Époque: Sep 13, 2026, 15:47 UTC

1 48705U 02032AN  26256.65825290  .00001009  00000-0  37810-3 0  9991
2 48705  98.8286 229.2379 0011589  61.5286 298.7064 14.33935819287215

Suivez NOAA 17 DEB en temps réel avec AllMySat

Download on the App Store